Regional Weather Roundup
Issued by NWS

Home | Current Version | Previous Version | Text Only | Print | Product List | Glossary Off
Versions: 1 2 3 4 5 6 7 8 9 10 11 12 13 14 15 16 17 18 19 20 21 22 23 24 25 26 27 28 29 30 31 32 33 34 35 36 37 38 39 40 41 42 43 44 45 46 47 48 49 50

000
ASUS43 KLMK 281502
RWRKY
KENTUCKY REGIONAL WEATHER ROUNDUP
NATIONAL WEATHER SERVICE LOUISVILLE KY
1100 AM EDT FRI AUG 28 2015

NOTE "FAIR" INDICATES FEW OR NO CLOUDS BELOW 12,000 FEET
WITH NO SIGNIFICANT WEATHER AND/OR OBSTRUCTIONS TO VISIBILITY.

KYZ001>023-026-027-061>063-070>075-281600-
WESTERN AND SOUTH CENTRAL KENTUCKY

CITY           SKY/WX    TMP DP  RH WIND       PRES   REMARKS
PADUCAH        SUNNY     75  61  61 E5        30.12S
HENDERSON      SUNNY     72  61  68 SE3       30.14S
OWENSBORO      SUNNY     74  61  63 SE7       30.16S
HOPKINSVILLE   SUNNY     73  62  68 E6        30.14S
BOWLING GREEN  SUNNY     72  60  66 E6        30.16S
GLASGOW        SUNNY     71  60  67 E3        30.17F
$$

KYZ024-025-028>034-038-045-046-053-281600-
NORTH CENTRAL KENTUCKY

CITY           SKY/WX    TMP DP  RH WIND       PRES   REMARKS
LOUISVILLE/SDF PTSUNNY   74  57  55 VRB3      30.17S
LOUISVILLE/LOU SUNNY     74  57  55 E7        30.18S
FORT KNOX      SUNNY     71  58  62 E6        30.17R
$$

KYZ035>037-039>044-047>052-055>060-089>105-281600-
NORTHEAST KENTUCKY

CITY           SKY/WX    TMP DP  RH WIND       PRES   REMARKS
LEXINGTON      SUNNY     74  56  53 E9        30.20S
COVINGTON      SUNNY     72  56  57 E8        30.20S
FRANKFORT      SUNNY     72  58  61 E7        30.19S
$$

KYZ054-064>069-076>088-106>120-281600-
SOUTHEAST KENTUCKY

CITY           SKY/WX    TMP DP  RH WIND       PRES   REMARKS
JACKSON        SUNNY     69  59  70 SE3       30.22R
LONDON         MOSUNNY   73  58  59 VRB3      30.21R
SOMERSET       MOSUNNY   70  59  68 CALM      30.21S
MIDDLESBORO    SUNNY     75  63  65 CALM      30.22S
MONTICELLO     MOSUNNY   72  63  73 CALM      30.23R
$$



USA.gov is the U.S. government's official web portal to all federal, state and local government web resources and services.